Fredericksburg, TX

1:25 PM CDT on April 23, 2018 (GMT -0500)
Fredericksburg

Weather History for KT82 - April, 2014

Change the Weather History Date:

Saturday, April 12, 2014

  Actual Average (KSAT) Record (KSAT)
Temperature  
Mean Temperature 72 °F -  
Max Temperature 82 °F 79 °F 94 °F (1948)
Min Temperature 63 °F 59 °F 36 °F (1951)
Cooling Degree Days 8    
Growing Degree Days 22 (Base 50)    
Moisture  
Dew Point 59 °F    
Average Humidity 67    
Maximum Humidity 84    
Minimum Humidity 40    
Precipitation  
Precipitation 0.00 in - - ()
Sea Level Pressure  
Sea Level Pressure 29.91 in    
Wind  
Wind Speed 12 mph (South)    
Max Wind Speed 20 mph    
Max Gust Speed 25 mph    
Visibility 10 miles    
Events      
Averages and records for this station are not official NWS values.
T = Trace of Precipitation, MM = Missing Value Source: NWS Daily Summary

Daily Weather History Graph

Daily Weather History Graph

Search for Another Location

Airport or City:

Astronomy

Apr. 12, 2014 Rise Set
Actual Time 7:11 AM CDT 8:01 PM CDT
Civil Twilight 6:47 AM CDT 8:25 PM CDT
Nautical Twilight 6:18 AM CDT 8:54 PM CDT
Astronomical Twilight 5:49 AM CDT 9:24 PM CDT
Moon 5:50 PM CDT (4/12) 5:28 AM CDT (4/12)
Length of Visible Light 13h 38m
Length of Day
12h 49m
Waxing Gibbous, 93% of the Moon is Illuminated
Apr 12
Waxing Gibbous
Apr 15
Full
Apr 22
Last Quarter
Apr 29
New
May 6
First Quarter

Hourly Weather History & Observations

Time (CDT) Temp. Heat Index Dew Point Humidity Pressure Visibility Wind Dir Wind Speed Gust Speed Precip Events Conditions
12:15 AM 66.2 °F - 58.6 °F 77% 29.98 in 10.0 mi South 8.1 mph - N/A   Clear
12:35 AM 65.5 °F - 58.6 °F 79% 29.98 in 10.0 mi South 9.2 mph 17.3 mph N/A   Clear
12:55 AM 64.6 °F - 58.3 °F 80% 29.98 in 10.0 mi South 8.1 mph - N/A   Clear
1:15 AM 63.9 °F - 58.1 °F 81% 29.98 in 10.0 mi South 11.5 mph 17.3 mph N/A   Clear
1:35 AM 63.7 °F - 58.5 °F 83% 29.97 in 10.0 mi South 10.4 mph 18.4 mph N/A   Mostly Cloudy
1:55 AM 64.2 °F - 58.8 °F 83% 29.97 in 10.0 mi South 12.7 mph 17.3 mph N/A   Overcast
2:15 AM 64.4 °F - 59.0 °F 83% 29.97 in 10.0 mi South 11.5 mph 19.6 mph N/A   Overcast
2:35 AM 64.9 °F - 59.4 °F 82% 29.97 in 10.0 mi SSW 12.7 mph 18.4 mph N/A   Overcast
2:55 AM 64.9 °F - 59.4 °F 82% 29.96 in 10.0 mi South 12.7 mph 19.6 mph N/A   Overcast
3:15 AM 64.8 °F - 59.4 °F 83% 29.96 in 10.0 mi SSW 12.7 mph 19.6 mph N/A   Overcast
3:35 AM 64.8 °F - 59.5 °F 83% 29.96 in 10.0 mi South 9.2 mph 16.1 mph N/A   Overcast
3:55 AM 64.6 °F - 59.5 °F 84% 29.96 in 10.0 mi South 11.5 mph 18.4 mph N/A   Overcast
4:15 AM 64.6 °F - 59.4 °F 83% 29.95 in 10.0 mi South 12.7 mph 18.4 mph N/A   Overcast
4:35 AM 64.6 °F - 58.8 °F 82% 29.94 in 10.0 mi South 13.8 mph - N/A   Overcast
4:55 AM 63.7 °F - 57.6 °F 80% 29.94 in 10.0 mi South 12.7 mph 19.6 mph N/A   Mostly Cloudy
5:15 AM 63.1 °F - 57.4 °F 81% 29.94 in 10.0 mi South 13.8 mph - N/A   Mostly Cloudy
5:35 AM 63.1 °F - 56.8 °F 80% 29.94 in 10.0 mi South 15.0 mph 19.6 mph N/A   Mostly Cloudy
5:55 AM 63.1 °F - 56.7 °F 79% 29.94 in 10.0 mi South 9.2 mph - N/A   Overcast
6:15 AM 63.0 °F - 56.3 °F 79% 29.94 in 10.0 mi South 12.7 mph - N/A   Overcast
6:35 AM 63.0 °F - 56.1 °F 78% 29.94 in 10.0 mi South 13.8 mph 17.3 mph N/A   Overcast
6:55 AM 63.0 °F - 56.3 °F 79% 29.95 in 10.0 mi South 12.7 mph - N/A   Overcast
7:15 AM 63.3 °F - 56.5 °F 78% 29.96 in 10.0 mi South 10.4 mph - N/A   Overcast
7:35 AM 63.5 °F - 56.8 °F 79% 29.96 in 10.0 mi South 10.4 mph - N/A   Overcast
7:55 AM 63.7 °F - 57.2 °F 79% 29.96 in 10.0 mi South 10.4 mph - N/A   Overcast
8:15 AM 64.4 °F - 57.6 °F 78% 29.97 in 10.0 mi South 9.2 mph 16.1 mph N/A   Overcast
8:35 AM 64.4 °F - 58.1 °F 80% 29.97 in 10.0 mi South 10.4 mph 17.3 mph N/A   Overcast
8:55 AM 64.6 °F - 58.6 °F 81% 29.97 in 10.0 mi SSW 9.2 mph - N/A   Overcast
9:15 AM 64.8 °F - 59.0 °F 82% 29.97 in 10.0 mi South 9.2 mph 17.3 mph N/A   Overcast
9:35 AM 65.3 °F - 59.5 °F 82% 29.97 in 10.0 mi South 11.5 mph 17.3 mph N/A   Overcast
9:55 AM 66.4 °F - 59.7 °F 79% 29.97 in 10.0 mi South 12.7 mph 17.3 mph N/A   Overcast
10:15 AM 67.1 °F - 59.4 °F 76% 29.97 in 10.0 mi South 11.5 mph 20.7 mph N/A   Overcast
10:35 AM 67.5 °F - 59.7 °F 76% 29.98 in 10.0 mi South 12.7 mph 17.3 mph N/A   Overcast
10:55 AM 68.4 °F - 59.2 °F 72% 29.97 in 10.0 mi South 15.0 mph 19.6 mph N/A   Overcast
11:15 AM 70.0 °F - 59.4 °F 69% 29.98 in 10.0 mi SSW 15.0 mph 19.6 mph N/A   Overcast
11:35 AM 72.0 °F - 59.9 °F 66% 29.98 in 10.0 mi SSW 12.7 mph - N/A   Overcast
11:55 AM 72.9 °F - 60.1 °F 64% 29.97 in 10.0 mi South 13.8 mph 18.4 mph N/A   Overcast
12:15 PM 73.4 °F - 59.9 °F 63% 29.96 in 10.0 mi South 15.0 mph 20.7 mph N/A   Mostly Cloudy
12:35 PM 74.1 °F - 60.4 °F 62% 29.95 in 10.0 mi South 13.8 mph 20.7 mph N/A   Mostly Cloudy
12:55 PM 75.0 °F - 60.4 °F 60% 29.95 in 10.0 mi SSW 10.4 mph 19.6 mph N/A   Mostly Cloudy
1:15 PM 76.3 °F - 60.6 °F 58% 29.94 in 10.0 mi South 17.3 mph 21.9 mph N/A   Mostly Cloudy
1:35 PM 77.5 °F - 60.6 °F 56% 29.92 in 10.0 mi South 13.8 mph 19.6 mph N/A   Scattered Clouds
1:55 PM 78.8 °F - 60.3 °F 53% 29.91 in 10.0 mi South 16.1 mph 21.9 mph N/A   Scattered Clouds
2:15 PM 80.4 °F 81.2 °F 60.4 °F 50% 29.90 in 10.0 mi South 13.8 mph 18.4 mph N/A   Clear
2:35 PM 81.3 °F 81.8 °F 59.9 °F 48% 29.89 in 10.0 mi SSE 15.0 mph 21.9 mph N/A   Clear
2:55 PM 82.0 °F 82.2 °F 59.5 °F 46% 29.88 in 10.0 mi South 13.8 mph 21.9 mph N/A   Clear
3:15 PM 82.0 °F 82.2 °F 59.5 °F 46% 29.87 in 10.0 mi South 19.6 mph 23.0 mph N/A   Clear
3:35 PM 82.4 °F 82.5 °F 59.2 °F 45% 29.86 in 10.0 mi South 16.1 mph 23.0 mph N/A   Clear
3:55 PM 82.2 °F 82.1 °F 58.5 °F 44% 29.86 in 10.0 mi South 13.8 mph 21.9 mph N/A   Clear
4:15 PM 81.3 °F 81.6 °F 58.6 °F 46% 29.86 in 10.0 mi South 16.1 mph 19.6 mph N/A   Clear
4:35 PM 81.7 °F 81.9 °F 59.2 °F 46% 29.85 in 10.0 mi South 15.0 mph - N/A   Clear
4:55 PM 81.7 °F 81.9 °F 59.0 °F 46% 29.85 in 10.0 mi South 17.3 mph 21.9 mph N/A   Clear
5:15 PM 82.4 °F 82.2 °F 57.9 °F 43% 29.84 in 10.0 mi South 15.0 mph 23.0 mph N/A   Clear
5:35 PM 82.4 °F 82.2 °F 57.9 °F 43% 29.83 in 10.0 mi South 15.0 mph 19.6 mph N/A   Clear
5:55 PM 82.0 °F 81.6 °F 56.5 °F 41% 29.84 in 10.0 mi South 12.7 mph 17.3 mph N/A   Clear
6:15 PM 81.7 °F 81.4 °F 56.3 °F 42% 29.83 in 10.0 mi South 15.0 mph 20.7 mph N/A   Clear
6:35 PM 81.0 °F 80.6 °F 54.5 °F 40% 29.83 in 10.0 mi South 10.4 mph 21.9 mph N/A   Clear
6:55 PM 80.1 °F 80.1 °F 54.5 °F 41% 29.83 in 10.0 mi South 15.0 mph 20.7 mph N/A   Clear
7:15 PM 79.2 °F - 55.8 °F 44% 29.84 in 10.0 mi South 13.8 mph - N/A   Clear
7:35 PM 78.3 °F - 55.9 °F 46% 29.83 in 10.0 mi SSE 9.2 mph - N/A   Clear
7:55 PM 77.7 °F - 56.1 °F 47% 29.82 in 10.0 mi SSE 8.1 mph - N/A   Clear
8:15 PM 77.0 °F - 59.2 °F 54% 29.83 in 10.0 mi SSE 8.1 mph - N/A   Clear
8:35 PM 76.3 °F - 59.9 °F 57% 29.84 in 10.0 mi South 11.5 mph 18.4 mph N/A   Clear
8:55 PM 75.2 °F - 61.5 °F 62% 29.84 in 10.0 mi SSE 9.2 mph - N/A   Clear
9:15 PM 73.6 °F - 62.6 °F 68% 29.85 in 10.0 mi South 13.8 mph 18.4 mph N/A   Clear
9:35 PM 72.3 °F - 62.8 °F 72% 29.85 in 10.0 mi SSE 13.8 mph 20.7 mph N/A   Clear
9:55 PM 71.2 °F - 62.8 °F 75% 29.85 in 10.0 mi SSE 13.8 mph 23.0 mph N/A   Clear
10:15 PM 70.9 °F - 62.8 °F 75% 29.85 in 10.0 mi South 15.0 mph 20.7 mph N/A   Scattered Clouds
10:35 PM 70.7 °F - 62.8 °F 76% 29.86 in 10.0 mi South 13.8 mph 25.3 mph N/A   Scattered Clouds
10:55 PM 70.2 °F - 62.6 °F 77% 29.85 in 10.0 mi South 15.0 mph 24.2 mph N/A   Mostly Cloudy
11:15 PM 69.4 °F - 62.6 °F 79% 29.86 in 10.0 mi South 12.7 mph 20.7 mph N/A   Overcast
11:35 PM 69.1 °F - 62.6 °F 80% 29.85 in 10.0 mi South 11.5 mph 20.7 mph N/A   Overcast
11:55 PM 68.9 °F - 62.6 °F 80% 29.86 in 10.0 mi South 13.8 mph 20.7 mph N/A   Overcast